Helicity
105 146 58 24 33 56 97 111 140 151 107 131 123 118 149 131 136 128 156 165 172 185 133 110 83 64 35 6 -25 -62 -99 -110 -146 -128 -119 -23 50 21 66 61 47 33 141 61
24 -8 11 53 67 80 80 97 126 141 133 169 156 144 139 118 107 133 141 159 192 211 185 147 117 99 85 31 -8 -42 -93 -113 -105 -113 -91 -85 14 22 5 87 86 76 60 105
10 21 73 86 111 115 107 71 115 116 148 183 143 122 169 160 91 120 160 185 217 230 193 160 142 115 108 83 21 -11 -89 -103 -107 -111 -74 -51 1 37 14 77 91 101 30 62
59 59 79 91 97 102 128 149 119 128 144 191 172 276 200 196 121 141 126 167 212 213 207 167 154 139 97 71 66 -5 -57 -85 -104 -109 -46 -16 -27 79 70 42 80 129 122 77
33 45 65 82 96 98 155 208 157 175 171 153 214 247 226 224 191 150 148 133 121 138 185 171 165 149 108 154 102 40 -24 -86 -70 -81 -43 -15 15 40 64 55 108 110 163 100
49 43 58 80 112 98 130 237 180 206 166 166 226 221 251 272 239 217 182 164 119 136 169 196 188 156 101 104 121 77 8 -47 -59 -63 -37 -6 14 52 86 102 95 124 158 171
72 72 62 77 87 93 101 116 132 174 168 199 297 213 233 235 196 189 163 130 126 164 159 206 202 157 145 117 105 80 25 -41 -42 -45 -32 -3 4 30 59 90 95 153 188 183
59 82 110 96 90 101 95 72 126 174 233 217 228 253 261 250 160 173 158 142 145 152 195 198 185 151 118 94 77 62 39 -19 -24 -28 -35 -9 2 -1 29 54 85 95 174 196
62 76 122 117 109 84 125 136 150 204 242 261 308 250 101 191 177 185 152 181 164 187 205 186 154 135 92 90 60 38 27 24 5 -18 -34 -1 -2 13 36 49 59 65 125 191
90 60 114 161 135 119 101 157 169 164 178 242 297 289 317 241 216 185 170 181 186 185 216 197 134 116 114 99 60 43 27 5 30 -17 -10 1 11 18 32 39 51 66 100 187
91 81 115 138 137 166 175 174 177 185 199 231 345 234 290 228 219 198 167 180 198 161 218 208 131 116 119 103 98 87 56 23 -4 -12 0 3 15 17 25 23 35 48 113 105
76 90 88 120 139 157 163 196 198 209 265 288 352 207 221 220 216 219 171 163 168 158 193 211 140 100 111 116 93 91 108 67 27 3 15 24 15 21 23 16 26 45 42 71
92 93 72 113 133 164 190 219 245 268 272 298 309 283 295 276 248 207 169 159 159 130 158 188 171 101 101 96 97 126 108 84 58 48 32 18 6 15 20 4 4 22 11 46
102 114 105 130 167 213 229 237 261 291 296 330 407 327 225 181 234 169 173 177 162 138 134 147 150 130 94 88 101 105 90 68 46 28 24 15 12 0 -5 7 -12 5 4 41
90 101 120 87 112 137 145 151 267 347 381 329 290 352 311 214 207 213 215 198 183 149 129 131 127 150 137 99 105 93 62 49 32 19 14 9 2 -1 -12 1 12 8 14 48
107 115 97 95 102 134 121 128 191 219 294 313 257 204 187 156 223 228 210 205 189 152 129 111 120 150 170 163 105 88 62 51 36 23 9 8 5 -2 4 -7 11 31 24 37
130 118 97 84 81 57 57 87 200 217 259 284 275 286 187 166 186 204 183 209 198 162 134 105 102 127 153 190 177 131 70 51 40 34 28 12 5 -7 12 -2 0 8 24 33
171 132 118 102 49 56 106 130 163 202 187 277 185 170 197 186 149 163 175 184 191 169 136 99 97 121 135 174 195 181 124 74 45 38 27 25 16 1 9 -1 -15 -11 -4 8
133 155 146 110 91 65 45 101 182 203 143 155 163 152 152 176 144 140 145 168 163 154 135 95 90 108 129 152 180 182 151 103 58 54 26 19 21 16 17 14 1 -18 -20 -5
182 160 162 150 113 90 101 124 166 179 92 143 154 141 172 225 177 163 165 158 151 140 127 117 104 110 122 131 177 167 144 129 108 82 30 22 26 19 20 14 5 3 -10 -5
192 163 167 197 148 73 101 183 177 131 119 171 149 140 218 217 204 192 189 160 147 150 150 136 135 118 111 127 162 146 140 125 125 107 57 50 53 51 33 15 6 -7 -13 -8
156 181 162 176 169 53 173 189 138 147 167 158 149 140 195 163 177 210 195 171 170 167 167 155 150 129 120 135 150 132 123 109 122 110 87 84 82 71 58 47 21 0 -10 -14
173 164 166 183 147 135 194 177 128 215 201 180 162 136 164 150 166 184 182 192 178 169 162 163 155 140 134 150 143 119 96 104 114 102 91 85 98 98 86 60 42 26 2 -8
150 215 223 213 166 196 284 249 199 222 194 139 143 113 151 152 148 158 173 190 200 182 170 164 174 161 154 149 143 106 82 96 107 87 81 81 104 114 105 83 65 41 25 13
210 240 223 221 144 153 145 184 145 106 117 95 103 105 108 132 120 146 153 179 196 194 176 179 184 158 147 157 145 104 88 105 106 81 60 65 81 101 101 86 70 55 42 24
470 416 297 243 151 102 56 67 84 92 107 102 97 90 93 126 111 139 126 152 190 201 205 196 180 161 143 156 152 118 108 123 104 83 67 58 67 80 81 72 57 49 25 38
Wind_Speed
58 65 64 58 58 51 47 42 37 34 34 34 30 30 27 26 24 24 24 26 27 27 24 23 28 38 50 58 66 68 68 68 64 63 62 62 61 59 57 55 55 53 54 52
62 71 53 53 54 54 47 41 37 31 35 33 34 29 26 23 24 24 26 27 28 27 25 23 26 31 38 57 64 68 67 66 63 61 60 60 61 59 57 58 56 54 53 51
68 54 47 49 50 43 48 47 36 34 36 37 38 38 37 29 24 27 27 25 25 27 28 25 25 26 32 44 61 66 67 65 63 61 60 59 59 58 57 58 58 57 54 53
58 47 50 50 52 44 50 44 36 38 43 49 48 50 42 44 40 35 34 31 30 28 25 25 23 23 24 36 51 65 66 64 62 60 59 58 59 61 60 60 60 59 56 54
46 44 45 49 46 44 47 47 44 44 45 44 50 47 42 47 52 51 46 42 38 29 26 26 22 18 18 27 44 61 63 64 61 58 56 57 58 58 59 59 60 58 56 54
43 38 37 42 39 40 40 48 46 47 46 55 49 50 45 52 53 54 49 50 46 36 29 28 22 18 17 26 35 49 59 61 58 55 54 55 57 58 58 58 58 58 57 55
38 37 36 37 39 39 49 55 56 55 57 58 48 47 40 41 40 44 47 48 46 38 35 32 26 20 19 20 26 40 57 60 57 53 53 55 55 55 55 56 57 58 58 56
45 44 40 38 42 44 53 58 62 57 56 50 47 52 49 42 40 41 41 43 43 42 40 35 28 23 22 21 22 27 50 57 55 52 53 55 53 51 52 53 55 56 57 55
43 40 38 40 38 40 47 59 46 46 42 48 50 44 34 41 42 49 50 47 48 50 45 39 33 28 26 24 24 20 23 49 50 52 53 53 50 48 50 52 54 53 53 54
39 40 37 39 39 46 41 43 53 52 57 54 52 52 55 54 52 55 56 50 49 50 48 41 37 33 30 28 27 25 19 20 38 50 51 49 47 45 46 49 50 50 51 52
40 38 41 37 35 39 42 44 47 45 45 51 56 53 43 49 50 53 54 48 46 48 47 43 38 36 33 31 30 30 30 24 12 26 41 44 42 42 43 43 45 47 49 45
38 38 42 40 35 32 32 36 37 48 46 38 43 44 39 42 46 48 50 46 41 43 44 42 39 37 36 34 33 34 34 31 23 10 18 30 37 40 40 41 42 42 41 41
35 41 48 43 38 35 32 30 30 37 37 35 45 44 42 45 47 45 43 45 42 41 42 43 40 39 36 34 34 35 34 31 26 23 17 16 38 39 39 38 38 37 36 40
33 36 36 40 39 37 31 27 22 27 35 37 27 31 34 41 45 44 42 42 42 42 40 42 41 37 33 32 33 34 35 31 30 28 25 22 21 40 38 38 34 33 36 39
31 35 33 28 20 18 13 11 14 15 20 27 32 32 32 33 38 40 39 38 40 40 39 38 39 37 33 31 31 31 31 32 30 27 26 25 26 45 40 37 35 34 34 36
32 37 39 43 35 32 15 8 9 7 11 8 14 23 21 28 36 39 36 34 35 36 35 35 34 35 35 33 30 29 29 30 30 28 26 24 22 25 41 39 35 36 35 39
30 34 42 42 39 28 26 25 19 23 20 22 25 23 31 30 33 35 34 31 30 31 31 32 34 33 32 34 33 31 29 27 27 28 27 26 24 24 30 27 38 36 38 40
28 30 35 39 51 40 35 30 27 17 15 8 9 14 19 26 28 27 25 26 28 28 27 30 33 34 34 34 34 34 32 29 26 25 26 26 27 26 27 31 39 40 39 40
24 26 33 38 40 19 25 24 21 24 19 13 13 15 22 30 33 33 30 24 23 25 25 26 30 33 33 33 32 33 32 31 27 27 26 24 25 27 28 28 29 35 42 40
24 23 24 34 38 36 34 27 31 36 23 23 21 23 28 35 43 39 31 29 26 24 24 25 26 29 28 28 30 31 30 31 29 28 28 24 24 26 27 27 28 29 33 42
25 23 14 19 27 15 8 22 28 37 33 22 21 21 28 30 28 31 28 27 25 24 23 23 24 24 23 27 27 26 27 26 26 27 26 24 25 27 27 26 25 27 29 31
18 22 24 22 22 18 20 24 22 30 30 21 22 20 20 18 22 19 21 21 21 21 21 20 21 20 22 23 23 23 23 23 24 25 26 25 24 26 27 28 28 26 25 26
27 15 22 11 17 22 3 19 6 31 28 22 20 17 15 16 16 14 13 15 15 15 17 18 16 17 18 20 19 18 17 21 21 21 23 23 23 24 25 26 26 27 26 24
27 19 16 33 21 25 20 29 19 18 14 18 16 16 15 14 16 16 13 13 13 12 12 13 14 13 13 13 14 12 15 17 18 17 17 19 20 21 22 23 23 24 24 25
35 23 16 22 37 30 29 16 16 12 13 12 13 9 9 14 16 17 14 11 10 9 8 10 10 10 9 10 8 9 11 13 12 12 13 14 13 15 17 18 19 21 22 23
29 24 23 25 21 17 18 41 30 25 23 18 18 17 12 14 17 20 17 12 11 9 7 9 8 7 8 7 5 5 7 8 8 8 9 10 10 11 12 14 15 15 17 19
Wind_Direction
67 62 61 64 59 63 61 58 53 51 51 46 45 34 38 43 33 19 12 10 5 1 2 3 0 355 345 337 326 320 313 311 305 303 300 296 294 291 289 286 283 288 282 286
68 59 76 72 64 60 58 53 48 52 51 48 38 24 38 39 26 17 8 3 359 358 357 356 355 355 351 336 328 322 314 310 306 301 298 294 291 289 286 285 282 285 278 281
64 77 80 70 62 60 52 45 47 49 46 48 34 40 39 36 22 14 5 356 353 352 350 351 351 351 355 349 330 323 315 309 305 302 295 294 290 287 284 285 280 280 276 280
66 79 71 66 60 59 49 44 51 51 43 38 38 31 39 36 25 17 10 1 353 349 350 350 349 354 0 357 344 327 314 309 306 301 296 294 288 284 285 282 280 278 280 275
74 74 69 61 59 58 49 46 51 50 45 40 40 37 37 31 24 21 21 14 8 2 0 356 359 7 8 8 352 331 320 308 307 302 299 291 288 285 283 282 280 277 276 274
73 75 71 61 60 57 47 45 52 49 47 42 40 38 32 30 24 22 21 19 15 16 12 8 17 23 16 12 6 348 331 313 308 305 298 293 289 285 282 282 278 277 275 273
64 64 63 60 54 55 45 41 42 43 41 39 42 38 30 25 23 18 15 14 17 18 15 18 24 26 22 17 18 1 333 315 311 306 302 297 289 286 282 280 278 277 273 273
46 45 52 53 51 46 43 43 43 37 38 34 42 36 35 33 27 20 16 16 19 20 24 25 28 33 31 31 29 19 346 320 313 308 303 299 296 286 281 279 280 277 272 273
38 41 50 47 52 50 43 39 49 46 47 40 39 36 33 37 31 26 23 24 24 26 26 31 36 41 40 45 39 39 34 343 323 313 303 300 293 289 284 281 281 279 274 271
38 34 43 45 49 45 48 54 40 43 37 37 35 35 32 30 29 25 24 26 28 29 30 36 42 45 50 53 48 55 62 68 4 316 306 301 293 293 288 285 282 279 277 274
34 36 33 40 42 41 43 43 46 47 48 37 31 34 38 29 28 23 23 27 30 29 32 37 44 50 56 56 59 63 71 84 127 262 290 295 296 294 294 292 288 281 279 278
32 30 24 29 39 45 47 44 48 38 38 44 39 33 38 31 26 24 23 28 31 33 35 40 46 52 58 62 64 68 73 80 86 136 253 285 302 303 297 298 294 287 282 282
30 20 15 23 32 38 37 44 48 46 46 41 38 25 36 28 23 24 26 30 34 36 38 41 48 54 60 65 69 73 78 78 87 102 120 263 316 314 306 299 300 292 289 288
29 19 17 15 16 23 25 37 52 50 41 39 29 7 5 13 17 23 32 36 38 39 41 43 47 54 61 66 74 76 77 78 90 91 96 105 290 322 319 311 306 300 294 293
20 10 13 8 2 12 8 23 49 48 43 34 29 17 352 359 16 26 36 40 40 42 43 47 48 52 60 68 76 78 78 79 88 91 89 90 93 346 335 322 310 302 302 300
10 3 4 3 18 23 12 27 54 49 40 339 327 341 358 23 34 31 35 41 43 44 48 49 53 54 58 66 76 80 79 81 83 86 88 93 96 95 26 334 322 312 305 305
3 3 360 1 9 10 28 42 59 50 53 43 32 19 29 26 27 30 37 44 46 49 52 53 53 57 63 67 73 77 79 82 84 84 86 88 93 96 94 33 334 322 309 309
2 3 2 356 356 10 22 33 43 45 41 61 22 11 19 27 31 35 43 47 50 54 58 56 58 60 65 70 72 74 75 76 82 85 82 88 87 92 101 90 29 332 320 311
8 7 360 358 359 360 23 38 39 37 26 61 59 36 37 40 38 40 53 60 61 62 65 65 62 62 66 70 76 76 71 70 76 79 81 87 89 90 97 97 90 61 335 324
10 11 5 0 358 4 13 29 32 27 33 70 51 39 37 39 30 36 53 59 63 70 71 71 72 68 72 73 76 71 70 67 69 74 74 87 95 92 95 96 93 91 80 359
4 3 353 356 353 358 5 27 28 17 22 46 41 38 37 32 35 43 53 56 62 68 73 77 76 72 74 70 76 76 72 70 72 74 76 85 94 89 91 92 95 95 91 88
7 5 0 7 360 359 33 27 17 11 15 23 24 30 27 28 33 42 48 52 58 63 69 78 73 77 74 77 79 72 73 75 77 77 70 77 91 93 88 84 83 87 93 94
341 349 359 352 352 0 121 352 315 352 356 0 3 10 15 14 19 31 38 47 53 62 64 67 72 70 74 76 83 76 75 73 81 81 70 70 83 88 88 85 80 76 77 85
334 328 327 339 331 253 259 245 261 322 300 335 342 351 2 357 7 13 22 32 43 57 61 61 62 65 66 78 78 81 73 69 74 74 75 71 80 80 81 82 86 78 75 71
325 333 312 297 258 258 249 244 246 290 304 310 328 316 321 349 354 1 7 16 26 40 58 51 49 46 53 64 79 72 66 65 73 70 64 72 88 91 82 81 78 78 81 77
304 250 252 279 291 279 296 333 334 334 337 342 346 348 347 351 352 0 357 2 9 14 30 23 19 16 13 26 41 52 49 59 54 51 52 53 72 94 90 79 67 78 76 84